ISOI (RS19S) (53381 NORAD) Tracking and Keplerian Element Data

This shows tracking and keplerian element data for the satellite.

Feedback or suggestion? Click here.




ElementValue
Catalog53381
NameISOI (RS19S)
Epoch Orbit9765
Epoch Day125.74590766
Epoch Year2024
RAAN45.6934
Inclination97.3891
Eccentricity0.0006111
Argument of Perigee120.4063
Mean Anonmoly239.781
Mean Motion15.80475738
Decay Rate0.00193448
L11 53381U 22096M 24125.74590766 .00193448 00000+0 10029-2 0 9999
L22 53381 97.3891 45.6934 0006111 120.4063 239.7810 15.80475738 97650



Live tracking and technical data element details for ISOI (RS19S) (NORAD 53381). ISOI (RS19S) can be tracked NOW for your location showing map with azimuth and elevation plus other details from your city location.







IsCatalogInMostPopularTable: catalog: 53381, numindb: 43
Update: records affected: 1



GetName: 53381 ISOI (RS19S)

Hit Count: updated at: Thu, 23 Jan 2025 17:59:43 GMT